Regional Weather Roundup
Issued by NWS

Home | Current Version | Previous Version | Text Only | Print | Product List | Glossary Off
Versions: 1 2 3 4 5 6 7 8 9 10 11 12 13 14 15 16 17 18 19 20 21 22 23 24 25 26 27 28 29 30 31 32 33 34 35 36 37 38 39 40 41 42 43 44 45 46 47 48 49 50

000
ASUS44 KMEG 300800
RWRTN
TENNESSEE HOURLY STATE WEATHER ROUNDUP
NATIONAL WEATHER SERVICE MEMPHIS TN
200 AM CST FRI JAN 30 2015

TNZ002-004-019-021-049-052-054-088>092-300900-
WEST TENNESSEE

CITY           SKY/WX    TMP DP  RH WIND       PRES   REMARKS
MEMPHIS INTL   MOCLDY    41  29  62 N5        30.42S
NWS MEMPHIS      N/A     42 N/A N/A MISG        N/A
JACKSON        CLOUDY    42  29  59 N13       30.40R
DYERSBURG      CLOUDY    39  21  48 N14       30.44R WCI  31
UNION CITY     CLOUDY    36  28  75 N10       30.41R WCI  28
PARIS          CLOUDY    36  27  69 N9        30.40R WCI  29
LEXINGTON      CLOUDY    39  28  65 N8        30.36S WCI  34
SAVANNAH       CLOUDY    41  27  56 N8        30.37F
$$

TNZ008-025-027-028-033-062-065-066-300900-
NORTH MIDDLE TENNESSEE

CITY           SKY/WX    TMP DP  RH WIND       PRES   REMARKS
NASHVILLE      CLOUDY    39  30  70 NW12G18   30.36R WCI  32
CLARKSVILLE    CLOUDY    36  27  69 N18       30.39R WCI  26
COOKEVILLE     MOCLDY    36  30  80 NW8       30.28R WCI  29
CROSSVILLE     CLOUDY    34  26  72 NW8G18    30.24R WCI  27
$$

TNZ061-075-076-078-094-096-097-300900-
SOUTH MIDDLE TENNESSEE

CITY           SKY/WX    TMP DP  RH WIND       PRES   REMARKS
FAYETTEVILLE   CLOUDY    37  28  70 MISG      30.31S
TULLAHOMA      CLOUDY    36  28  75 N7        30.30S WCI  30
WINCHESTER     CLOUDY    36  30  80 N12       30.31R WCI  27
COLUMBIA       CLOUDY    39  34  81 N5        30.33R
$$

TNZ017-018-042-046-047-300900-
NORTHEAST TENNESSEE

CITY           SKY/WX    TMP DP  RH WIND       PRES   REMARKS
TRI CITIES     CLOUDY    37  30  75 W9        30.14R WCI  30
ELIZABETHTON   CLOUDY    36  28  75 VRB5      30.12R WCI  32
$$

TNZ012-013-036-069-073-074-300900-
CENTRAL EAST TENNESSEE

CITY           SKY/WX    TMP DP  RH WIND       PRES   REMARKS
KNOXVILLE      CLOUDY    39  28  64 NW10      30.24R WCI  32
OAK RIDGE      CLOUDY    39  26  59 NW7       30.27R WCI  34
GATLINBURG     CLOUDY    36  28  75 NW13      30.22R WCI  27
$$

TNZ083-085-099-300900-
SOUTHEAST TENNESSEE

CITY           SKY/WX    TMP DP  RH WIND       PRES   REMARKS
CHATTANOOGA    CLOUDY    41  27  57 N13       30.28R
$$

SKY/WX REPORTED AS FAIR MEANS FEW OR NO CLOUDS BELOW
12 THOUSAND FEET.




USA.gov is the U.S. government's official web portal to all federal, state and local government web resources and services.